DECAYED

CZ-6A DEB, 61820 (Decayed)

Orbit data source: Space-Track

CZ-6A DEB, 61820 was space debris in LEO originally from a launch on Tue, 06 Aug 2024 UTC launched from the Taiyaun Space Center, China (TSC). Debris objects in space refer to the collection of defunct objects orbiting the Earth. Examples of debris include non-operational satellites, rocket bodies, and fragments generated from explosions, collisions, or faulty payload assembly.

Not visible in the next 10 days
Identifier
61820, 2024-140ACL
Orbit
Decayed
Country
Flag of CNCN / PRC
Related business
Manufacturer
SAST
Mission
Decayed spacecraft
Bus & Motor
Unknown
Mass
Unknown
Launch date (UTC)
2024-08-06 (2 years ago)
Launch vehicle
Unknown
Launch site
Taiyaun Space Center, China (TSC)
Object type
Payload
Rocket body
Debris
Shape & HBR
Unknown shape, 1.1 m
Radar Cross Section
Medium (>0.1 m² and <1 m²)

Expand to show TLE details & history
Last TLE update: 1 year ago

TLE from 1 year ago
0 CZ-6A DEB
1 61820U 24140ACL 25098.11056480  .00885995  00000-0  24064-1 0  9998
2 61820  89.2943 330.2957 0042195 208.0106 151.8877 15.34238082 32100
Epoch: 2025-04-08T02:39Z
TLE epoch observation values (Epoch: 2025-04-08T02:39:12.798Z)
Latitude
-0.00005°
Longitude
93.87603°
Altitude
491.895 km
Speed
7.605 km/s
True Right ascension
22h 01m 10s
True Declination
0° 00' 00"
Sunlit
Object was in daylight at epoch
Visualization orbit readout
Latitude
Unknown
Longitude
Unknown
Altitude
Unknown
Speed
Unknown
Apparent Right ascension
Unknown
Apparent Declination
Unknown
Sunlit
N/A
Visualization observer readout
Local Sidereal Time
07:21:23
Azimuth
Unknown
Elevation
Unknown
Doppler factor
Unknown
Orbital elements
Apogee altitude
488.826 km
Perigee altitude
431.119 km
Semi-major axis
6,838.109 km
Eccentricity
0.00422
Inclination
89.2943°
RAAN
330.2957°
Arg. of periapsis
208.0106°
True anomaly
152.11448°
Mean anomaly
151.8877°
Eccentric anomaly
152.00119°
Mean motion
3.8383 °/min
Orbital period
93.79 mins
BSTAR
0.024064
Loading maneuver chart data...
Computing Atmospheric mass density...
Loading historical data...
Loading historical data...
Loading historical data...
Loading historical data...
Loading historical data...
Loading historical data...
Loading historical data...

Documentation

Showing up to 5 results
|